This is the latest recevied weather packets stored in our database for station/object WX5KDM. If no packets are shown the sender has not sent any weather packets the latest 10 day(s).
| Time | Temp. | Humidity | Pressure | Rain* | Wind** | Luminosity | Snow |
|---|---|---|---|---|---|---|---|
| 1787937670 | 30.56° C | 52% | 1019.1 hPa | 0 mm | - | - | - |
| 1787937367 | 30.56° C | 53% | 1019.2 hPa | 0 mm | - | - | - |
| 1787937062 | 31.11° C | 53% | 1019.3 hPa | 0 mm | - | - | - |
| 1787936761 | 31.11° C | 53% | 1019.3 hPa | 0 mm | - | - | - |
| 1787936456 | 31.11° C | 55% | 1019.4 hPa | 0 mm | - | - | - |
| 1787936155 | 30.56° C | 58% | 1019.3 hPa | 0 mm | - | - | - |
| 1787935851 | 31.11° C | 59% | 1019.5 hPa | 0 mm | - | - | - |
| 1787935547 | 30.56° C | 57% | 1019.5 hPa | 0 mm | - | - | - |
| 1787935243 | 30.56° C | 56% | 1019.4 hPa | 0 mm | - | - | - |
| 1787934938 | 30.56° C | 57% | 1019.4 hPa | 0 mm | - | - | - |
| 1787934633 | 30.56° C | 58% | 1019.5 hPa | 0 mm | - | - | - |
| 1787934327 | 30.56° C | 56% | 1019.4 hPa | 0 mm | - | - | - |
| 1787934026 | 30.56° C | 60% | 1019.5 hPa | 0 mm | - | - | - |
| 1787933721 | 30.56° C | 60% | 1019.6 hPa | 0 mm | - | - | - |
| 1787933427 | 30° C | 59% | 1019.4 hPa | 0 mm | - | - | - |
| 1787933115 | 30° C | 58% | 1019.4 hPa | 0 mm | - | - | - |
| 1787932815 | 30° C | 59% | 1019.7 hPa | 0 mm | - | - | - |
| 1787932510 | 30° C | 60% | 1019.6 hPa | 0 mm | - | - | - |
| 1787932204 | 30° C | 63% | 1019.5 hPa | 0 mm | - | - | - |
| 1787931903 | 29.44° C | 62% | 1019.4 hPa | 0 mm | - | - | - |
| 1787931597 | 29.44° C | 67% | 1019.4 hPa | 0 mm | - | - | - |
| 1787931292 | 29.44° C | 66% | 1019.4 hPa | 0 mm | - | - | - |
| 1787930991 | 28.89° C | 66% | 1019.3 hPa | 0 mm | - | - | - |
| 1787930690 | 28.89° C | 66% | 1019.4 hPa | 0 mm | - | - | - |
| 1787930386 | 28.33° C | 68% | 1019.3 hPa | 0 mm | - | - | - |
* Rain latest hour (hover to see other rain measurements)
** Current wind speed in m/s (hover to see current wind gust speed)